Regional Weather Roundup
Issued by NWS

Home | Current Version | Previous Version | Graphics & Text | Print | Product List | Glossary On
Versions: 1 2 3 4 5 6 7 8 9 10 11 12 13 14 15 16 17 18 19 20 21 22 23 24 25 26 27 28 29 30 31 32 33 34 35 36 37 38 39 40 41 42 43 44 45 46 47 48 49 50
000
ASUS45 KABQ 041110
RWRNM
NEW MEXICO REGIONAL WEATHER ROUNDUP
NATIONAL WEATHER SERVICE ALBUQUERQUE NM
500 AM MDT WED MAY 04 2016

NOTE: "FAIR" MEANS FEW OR NO CLOUDS BELOW 12,000 FEET AGL WITH NO
       SIGNIFICANT WEATHER OR OBSTRUCTIONS TO VISION.

      THIS PRODUCT IS RELEASED AS TWO VERSIONS.  ONE VERSION NEAR
      THE TOP OF THE HOUR CONTAINING PRELIMINARY DATA FROM ALBUQUERQUE
      AND OTHER STATIONS.  A FINAL VERSION WITH ADDITIONAL DATA IS
      ISSUED ABOUT 10 MINUTES AFTER THE HOUR.

NMZ501-503-504-510>518-041200-
NORTHWEST PLATEAU/NORTHCENTRAL MOUNTAINS

CITY           SKY/WX    TMP DP  RH WIND       PRES   REMARKS
FARMINGTON     FAIR      45  35  68 E9        30.26R
LOS ALAMOS     FAIR      46  20  36 SW8       30.37F
SANTA FE       FAIR      37  29  72 N6        30.33S WCI  32
TAOS           FAIR      32  21  64 N3        30.38S
ANGEL FIRE     FAIR      22  19  90 CALM      30.45R

$$
NMZ402-403-502-505>509-041200-
WESTCENTRAL MOUNTAINS/SOUTHWEST MOUNTAINS

CITY           SKY/WX    TMP DP  RH WIND       PRES   REMARKS
GALLUP         FAIR      39  31  72 CALM      30.29S
GRANTS         FAIR      34  32  92 CALM      30.34S
SILVER CITY      N/A     45  25  45 N7        30.26S

$$
NMZ407-409-411-412-041200-
SOUTHERN DESERTS

CITY           SKY/WX    TMP DP  RH WIND       PRES   REMARKS
LORDSBURG      FAIR      55  30  38 S12       30.16S
DEMING         FAIR      54  30  40 CALM      30.20R
LAS CRUCES     FAIR      61  31  32 SE10G16   30.21S
HOLLOMAN AFB   FAIR      50  30  46 S5        30.20R
ALAMOGORDO     FAIR      54  30  40 SE5       30.21S
T OR C         FAIR      50  26  39 NW8       30.22S

$$
NMZ519>523-041200-
CENTRAL VALLEYS/CENTRAL HIGHLANDS

CITY           SKY/WX    TMP DP  RH WIND       PRES   REMARKS
ALBUQUERQUE    FAIR      53  31  42 N9        30.28S
DOUBLE EAGLE   FAIR      43  32  63 N8        30.31S
MORIARTY ARPT  FAIR      27  22  80 CALM      30.35S
CLINES CORNERS FAIR      42  20  41 S7        30.34F
BELEN          FAIR      47  29  49 S6        30.28S
SOCORRO        FAIR      48  31  51 W5        30.26S

$$
NMZ524>526-539-540-041200-
SOUTHCENTRAL MOUNTAINS

CITY           SKY/WX    TMP DP  RH WIND       PRES   REMARKS
RUIDOSO          N/A     41  28  60 W3        30.36F

$$
NMZ527>531-041200-
NORTHEAST HIGHLANDS/NORTHEAST PLAINS

CITY           SKY/WX    TMP DP  RH WIND       PRES   REMARKS
LAS VEGAS      FAIR      34  28  79 NE7       30.35S WCI  28
RATON          FAIR      34  27  75 NE9       30.32S WCI  27
CLAYTON        FAIR      47  33  58 W14       30.23F

$$
NMZ532>537-041200-
EASTCENTRAL PLAINS

CITY           SKY/WX    TMP DP  RH WIND       PRES   REMARKS
TUCUMCARI      FAIR      40  32  73 W7        30.23F
CANNON AFB     FAIR      45  34  64 NW10      30.24S
CLOVIS AIRPORT FAIR      41  32  70 NW9       30.24F

$$
NMZ028-029-538-041200-
SOUTHEAST PLAINS

CITY           SKY/WX    TMP DP  RH WIND       PRES   REMARKS
ROSWELL        FAIR      45  32  60 W3        30.23S
ARTESIA        FAIR      45  30  57 W8        30.24S
CARLSBAD       FAIR      47  35  63 NW6       30.21S
HOBBS          FAIR      41  41 100 NW7       30.23S


$$



USA.gov is the U.S. government's official web portal to all federal, state and local government web resources and services.